Year,Month,Day,Hour,Minute,Value (Times are PST for windgust in km/hr)
2018,04,01,00,00,11.30
2018,04,01,00,01,6.40
2018,04,01,00,02,1.60
2018,04,01,00,03,9.60
2018,04,01,00,04,9.60
2018,04,01,00,05,8.10
2018,04,01,00,06,8.10
2018,04,01,00,07,9.60
2018,04,01,00,08,17.70
2018,04,01,00,09,16.10
2018,04,01,00,10,12.90
2018,04,01,00,11,12.90
2018,04,01,00,12,19.30
2018,04,01,00,13,16.10
2018,04,01,00,14,11.30
2018,04,01,00,15,11.30
2018,04,01,00,16,14.50
2018,04,01,00,17,16.10
2018,04,01,00,18,12.90
2018,04,01,00,19,12.90
2018,04,01,00,20,11.30
2018,04,01,00,21,12.90
2018,04,01,00,22,11.30
2018,04,01,00,23,9.60
2018,04,01,00,24,11.30
2018,04,01,00,25,11.30
2018,04,01,00,26,8.10
2018,04,01,00,27,9.60
2018,04,01,00,28,16.10
2018,04,01,00,29,8.10
2018,04,01,00,30,9.60
2018,04,01,00,31,8.10
2018,04,01,00,32,17.70
2018,04,01,00,33,12.90
2018,04,01,00,34,19.30
2018,04,01,00,35,14.50
2018,04,01,00,36,16.10
2018,04,01,00,37,19.30
2018,04,01,00,38,11.30
2018,04,01,00,39,14.50
2018,04,01,00,40,12.90
2018,04,01,00,41,8.10
2018,04,01,00,42,19.30
2018,04,01,00,43,20.90
2018,04,01,00,44,17.70
2018,04,01,00,45,19.30
2018,04,01,00,46,19.30
2018,04,01,00,47,20.90
2018,04,01,00,48,20.90
2018,04,01,00,49,19.30
2018,04,01,00,50,11.30
2018,04,01,00,51,17.70
2018,04,01,00,52,11.30
2018,04,01,00,53,12.90
2018,04,01,00,54,11.30
2018,04,01,00,55,16.10
2018,04,01,00,56,20.90
2018,04,01,00,57,14.50
2018,04,01,00,58,14.50
2018,04,01,00,59,19.30
2018,04,01,01,00,9.60
2018,04,01,01,01,17.70
2018,04,01,01,02,12.90
2018,04,01,01,03,14.50
2018,04,01,01,04,24.20
2018,04,01,01,05,11.30
2018,04,01,01,06,11.30
2018,04,01,01,07,19.30
2018,04,01,01,08,32.20
2018,04,01,01,09,19.30
2018,04,01,01,10,22.50
2018,04,01,01,11,14.50
2018,04,01,01,12,8.10
2018,04,01,01,13,9.60
2018,04,01,01,14,17.70
2018,04,01,01,15,14.50
2018,04,01,01,16,14.50
2018,04,01,01,17,17.70
2018,04,01,01,18,19.30
2018,04,01,01,19,17.70
2018,04,01,01,20,12.90
2018,04,01,01,21,19.30
2018,04,01,01,22,20.90
2018,04,01,01,23,12.90
2018,04,01,01,24,12.90
2018,04,01,01,25,14.50
2018,04,01,01,26,24.20
2018,04,01,01,27,24.20
2018,04,01,01,28,20.90
2018,04,01,01,29,19.30
2018,04,01,01,30,19.30
2018,04,01,01,31,17.70
2018,04,01,01,32,17.70
2018,04,01,01,33,16.10
2018,04,01,01,34,19.30
2018,04,01,01,35,14.50
2018,04,01,01,36,19.30
2018,04,01,01,37,17.70
2018,04,01,01,38,12.90
2018,04,01,01,39,25.70
2018,04,01,01,40,27.40
2018,04,01,01,41,19.30
2018,04,01,01,42,22.50
2018,04,01,01,43,17.70
2018,04,01,01,44,17.70
2018,04,01,01,45,12.90
2018,04,01,01,46,14.50
2018,04,01,01,47,16.10
2018,04,01,01,48,12.90
2018,04,01,01,49,22.50
2018,04,01,01,50,24.20
2018,04,01,01,51,17.70
2018,04,01,01,52,12.90
2018,04,01,01,53,11.30
2018,04,01,01,54,6.40
2018,04,01,01,55,12.90
2018,04,01,01,56,12.90
2018,04,01,01,57,11.30
2018,04,01,01,58,17.70
2018,04,01,01,59,24.20
2018,04,01,02,00,16.10
2018,04,01,02,01,14.50
2018,04,01,02,02,12.90
2018,04,01,02,03,12.90
2018,04,01,02,04,22.50
2018,04,01,02,05,12.90
2018,04,01,02,06,11.30
2018,04,01,02,07,16.10
2018,04,01,02,08,17.70
2018,04,01,02,09,22.50
2018,04,01,02,10,11.30
2018,04,01,02,11,14.50
2018,04,01,02,12,20.90
2018,04,01,02,13,20.90
2018,04,01,02,14,19.30
2018,04,01,02,15,20.90
2018,04,01,02,16,20.90
2018,04,01,02,17,12.90
2018,04,01,02,18,17.70
2018,04,01,02,19,20.90
2018,04,01,02,20,19.30
2018,04,01,02,21,19.30
2018,04,01,02,22,16.10
2018,04,01,02,23,16.10
2018,04,01,02,24,19.30
2018,04,01,02,25,20.90
2018,04,01,02,26,29.00
2018,04,01,02,27,14.50
2018,04,01,02,28,17.70
2018,04,01,02,29,14.50
2018,04,01,02,30,19.30
2018,04,01,02,31,12.90
2018,04,01,02,32,12.90
2018,04,01,02,33,9.60
2018,04,01,02,34,11.30
2018,04,01,02,35,20.90
2018,04,01,02,36,17.70
2018,04,01,02,37,19.30
2018,04,01,02,38,20.90
2018,04,01,02,39,17.70
2018,04,01,02,40,22.50
2018,04,01,02,41,20.90
2018,04,01,02,42,9.60
2018,04,01,02,43,14.50
2018,04,01,02,44,22.50
2018,04,01,02,45,20.90
2018,04,01,02,46,17.70
2018,04,01,02,47,6.40
2018,04,01,02,48,12.90
2018,04,01,02,49,16.10
2018,04,01,02,50,12.90
2018,04,01,02,51,16.10
2018,04,01,02,52,11.30
2018,04,01,02,53,16.10
2018,04,01,02,54,19.30
2018,04,01,02,55,16.10
2018,04,01,02,56,16.10
2018,04,01,02,57,14.50
2018,04,01,02,58,14.50
2018,04,01,02,59,12.90
2018,04,01,03,00,17.70
2018,04,01,03,01,14.50
2018,04,01,03,02,20.90
2018,04,01,03,03,19.30
2018,04,01,03,04,17.70
2018,04,01,03,05,17.70
2018,04,01,03,06,22.50
2018,04,01,03,07,22.50
2018,04,01,03,08,17.70
2018,04,01,03,09,17.70
2018,04,01,03,10,19.30
2018,04,01,03,11,17.70
2018,04,01,03,12,9.60
2018,04,01,03,13,19.30
2018,04,01,03,14,19.30
2018,04,01,03,15,20.90
2018,04,01,03,16,19.30
2018,04,01,03,17,17.70
2018,04,01,03,18,11.30
2018,04,01,03,19,20.90
2018,04,01,03,20,12.90
2018,04,01,03,21,9.60
2018,04,01,03,22,11.30
2018,04,01,03,23,14.50
2018,04,01,03,24,19.30
2018,04,01,03,25,19.30
2018,04,01,03,26,17.70
2018,04,01,03,27,14.50
2018,04,01,03,28,9.60
2018,04,01,03,29,16.10
2018,04,01,03,30,12.90
2018,04,01,03,31,12.90
2018,04,01,03,32,12.90
2018,04,01,03,33,24.20
2018,04,01,03,34,20.90
2018,04,01,03,35,20.90
2018,04,01,03,36,16.10
2018,04,01,03,37,19.30
2018,04,01,03,38,20.90
2018,04,01,03,39,27.40
2018,04,01,03,40,17.70
2018,04,01,03,41,20.90
2018,04,01,03,42,22.50
2018,04,01,03,43,17.70
2018,04,01,03,44,12.90
2018,04,01,03,45,19.30
2018,04,01,03,46,17.70
2018,04,01,03,47,14.50
2018,04,01,03,48,20.90
2018,04,01,03,49,12.90
2018,04,01,03,50,19.30
2018,04,01,03,51,17.70
2018,04,01,03,52,17.70
2018,04,01,03,53,16.10
2018,04,01,03,54,11.30
2018,04,01,03,55,16.10
2018,04,01,03,56,14.50
2018,04,01,03,57,19.30
2018,04,01,03,58,11.30
2018,04,01,03,59,16.10
2018,04,01,04,00,14.50
2018,04,01,04,01,16.10
2018,04,01,04,02,17.70
2018,04,01,04,03,12.90
2018,04,01,04,04,12.90
2018,04,01,04,05,12.90
2018,04,01,04,06,12.90
2018,04,01,04,07,11.30
2018,04,01,04,08,9.60
2018,04,01,04,09,4.80
2018,04,01,04,10,12.90
2018,04,01,04,11,16.10
2018,04,01,04,12,14.50
2018,04,01,04,13,12.90
2018,04,01,04,14,6.40
2018,04,01,04,15,12.90
2018,04,01,04,16,9.60
2018,04,01,04,17,8.10
2018,04,01,04,18,8.10
2018,04,01,04,19,16.10
2018,04,01,04,20,12.90
2018,04,01,04,21,9.60
2018,04,01,04,22,19.30
2018,04,01,04,23,9.60
2018,04,01,04,24,19.30
2018,04,01,04,25,24.20
2018,04,01,04,26,16.10
2018,04,01,04,27,14.50
2018,04,01,04,28,16.10
2018,04,01,04,29,12.90
2018,04,01,04,30,22.50
2018,04,01,04,31,24.20
2018,04,01,04,32,22.50
2018,04,01,04,33,19.30
2018,04,01,04,34,12.90
2018,04,01,04,35,14.50
2018,04,01,04,36,22.50
2018,04,01,04,37,20.90
2018,04,01,04,38,19.30
2018,04,01,04,39,14.50
2018,04,01,04,40,11.30
2018,04,01,04,41,20.90
2018,04,01,04,42,19.30
2018,04,01,04,43,12.90
2018,04,01,04,44,22.50
2018,04,01,04,45,14.50
2018,04,01,04,46,17.70
2018,04,01,04,47,20.90
2018,04,01,04,48,19.30
2018,04,01,04,49,9.60
2018,04,01,04,50,17.70
2018,04,01,04,51,19.30
2018,04,01,04,52,16.10
2018,04,01,04,53,24.20
2018,04,01,04,54,20.90
2018,04,01,04,55,20.90
2018,04,01,04,56,8.10
2018,04,01,04,57,16.10
2018,04,01,04,58,17.70
2018,04,01,04,59,17.70
2018,04,01,05,00,17.70
2018,04,01,05,01,16.10
2018,04,01,05,02,24.20
2018,04,01,05,03,12.90
2018,04,01,05,04,17.70
2018,04,01,05,05,19.30
2018,04,01,05,06,11.30
2018,04,01,05,07,22.50
2018,04,01,05,08,12.90
2018,04,01,05,09,12.90
2018,04,01,05,10,6.40
2018,04,01,05,11,6.40
2018,04,01,05,12,8.10
2018,04,01,05,13,11.30
2018,04,01,05,14,12.90
2018,04,01,05,15,9.60
2018,04,01,05,16,8.10
2018,04,01,05,17,4.80
2018,04,01,05,18,6.40
2018,04,01,05,19,9.60
2018,04,01,05,20,9.60
2018,04,01,05,21,9.60
2018,04,01,05,22,9.60
2018,04,01,05,23,16.10
2018,04,01,05,24,16.10
2018,04,01,05,25,6.40
2018,04,01,05,26,9.60
2018,04,01,05,27,14.50
2018,04,01,05,28,12.90
2018,04,01,05,29,16.10
2018,04,01,05,30,17.70
2018,04,01,05,31,12.90
2018,04,01,05,32,8.10
2018,04,01,05,33,6.40
2018,04,01,05,34,17.70
2018,04,01,05,35,20.90
2018,04,01,05,36,14.50
2018,04,01,05,37,19.30
2018,04,01,05,38,19.30
2018,04,01,05,39,22.50
2018,04,01,05,40,19.30
2018,04,01,05,41,19.30
2018,04,01,05,42,16.10
2018,04,01,05,43,14.50
2018,04,01,05,44,17.70
2018,04,01,05,45,16.10
2018,04,01,05,46,9.60
2018,04,01,05,47,14.50
2018,04,01,05,48,14.50
2018,04,01,05,49,8.10
2018,04,01,05,50,12.90
2018,04,01,05,51,9.60
2018,04,01,05,52,9.60
2018,04,01,05,53,14.50
2018,04,01,05,54,9.60
2018,04,01,05,55,8.10
2018,04,01,05,56,11.30
2018,04,01,05,57,11.30
2018,04,01,05,58,8.10
2018,04,01,05,59,12.90
2018,04,01,06,00,17.70
2018,04,01,06,01,19.30
2018,04,01,06,02,16.10
2018,04,01,06,03,12.90
2018,04,01,06,04,16.10
2018,04,01,06,05,17.70
2018,04,01,06,06,24.20
2018,04,01,06,07,17.70
2018,04,01,06,08,16.10
2018,04,01,06,09,9.60
2018,04,01,06,10,16.10
2018,04,01,06,11,19.30
2018,04,01,06,12,11.30
2018,04,01,06,13,17.70
2018,04,01,06,14,20.90
2018,04,01,06,15,17.70
2018,04,01,06,16,16.10
2018,04,01,06,17,14.50
2018,04,01,06,18,16.10
2018,04,01,06,19,17.70
2018,04,01,06,20,17.70
2018,04,01,06,21,14.50
2018,04,01,06,22,12.90
2018,04,01,06,23,17.70
2018,04,01,06,24,11.30
2018,04,01,06,25,14.50
2018,04,01,06,26,16.10
2018,04,01,06,27,20.90
2018,04,01,06,28,19.30
2018,04,01,06,29,17.70
2018,04,01,06,30,17.70
2018,04,01,06,31,12.90
2018,04,01,06,32,19.30
2018,04,01,06,33,22.50
2018,04,01,06,34,20.90
2018,04,01,06,35,16.10
2018,04,01,06,36,17.70
2018,04,01,06,37,11.30
2018,04,01,06,38,14.50
2018,04,01,06,39,14.50
2018,04,01,06,40,17.70
2018,04,01,06,41,17.70
2018,04,01,06,42,20.90
2018,04,01,06,43,16.10
2018,04,01,06,44,16.10
2018,04,01,06,45,19.30
2018,04,01,06,46,14.50
2018,04,01,06,47,12.90
2018,04,01,06,48,14.50
2018,04,01,06,49,11.30
2018,04,01,06,50,11.30
2018,04,01,06,51,19.30
2018,04,01,06,52,16.10
2018,04,01,06,53,17.70
2018,04,01,06,54,16.10
2018,04,01,06,55,17.70
2018,04,01,06,56,14.50
2018,04,01,06,57,14.50
2018,04,01,06,58,12.90
2018,04,01,06,59,9.60
2018,04,01,07,00,12.90
2018,04,01,07,01,11.30
2018,04,01,07,02,16.10
2018,04,01,07,03,17.70
2018,04,01,07,04,16.10
2018,04,01,07,05,17.70
2018,04,01,07,06,16.10
2018,04,01,07,07,14.50
2018,04,01,07,08,11.30
2018,04,01,07,09,17.70
2018,04,01,07,10,16.10
2018,04,01,07,11,14.50
2018,04,01,07,12,12.90
2018,04,01,07,13,12.90
2018,04,01,07,14,11.30
2018,04,01,07,15,16.10
2018,04,01,07,16,12.90
2018,04,01,07,17,9.60
2018,04,01,07,18,6.40
2018,04,01,07,19,11.30
2018,04,01,07,20,9.60
2018,04,01,07,21,6.40
2018,04,01,07,22,8.10
2018,04,01,07,23,11.30
2018,04,01,07,24,9.60
2018,04,01,07,25,8.10
2018,04,01,07,26,6.40
2018,04,01,07,27,11.30
2018,04,01,07,28,6.40
2018,04,01,07,29,8.10
2018,04,01,07,30,6.40
2018,04,01,07,31,6.40
2018,04,01,07,32,14.50
2018,04,01,07,33,11.30
2018,04,01,07,34,8.10
2018,04,01,07,35,6.40
2018,04,01,07,36,8.10
2018,04,01,07,37,11.30
2018,04,01,07,38,12.90
2018,04,01,07,39,9.60
2018,04,01,07,40,12.90
2018,04,01,07,41,12.90
2018,04,01,07,42,11.30
2018,04,01,07,43,8.10
2018,04,01,07,44,8.10
2018,04,01,07,45,9.60
2018,04,01,07,46,11.30
2018,04,01,07,47,11.30
2018,04,01,07,48,11.30
2018,04,01,07,49,16.10
2018,04,01,07,50,14.50
2018,04,01,07,51,11.30
2018,04,01,07,52,14.50
2018,04,01,07,53,9.60
2018,04,01,07,54,11.30
2018,04,01,07,55,6.40
2018,04,01,07,56,8.10
2018,04,01,07,57,12.90
2018,04,01,07,58,14.50
2018,04,01,07,59,9.60
2018,04,01,08,00,11.30
2018,04,01,08,01,12.90
2018,04,01,08,02,12.90
2018,04,01,08,03,16.10
2018,04,01,08,04,16.10
2018,04,01,08,05,9.60
2018,04,01,08,06,8.10
2018,04,01,08,07,11.30
2018,04,01,08,08,12.90
2018,04,01,08,09,12.90
2018,04,01,08,10,12.90
2018,04,01,08,11,9.60
2018,04,01,08,12,16.10
2018,04,01,08,13,12.90
2018,04,01,08,14,14.50
2018,04,01,08,15,12.90
2018,04,01,08,16,9.60
2018,04,01,08,17,17.70
2018,04,01,08,18,14.50
2018,04,01,08,19,12.90
2018,04,01,08,20,11.30
2018,04,01,08,21,11.30
2018,04,01,08,22,17.70
2018,04,01,08,23,11.30
2018,04,01,08,24,11.30
2018,04,01,08,25,11.30
2018,04,01,08,26,12.90
2018,04,01,08,27,9.60
2018,04,01,08,28,12.90
2018,04,01,08,29,9.60
2018,04,01,08,30,8.10
2018,04,01,08,31,9.60
2018,04,01,08,32,12.90
2018,04,01,08,33,22.50
2018,04,01,08,34,22.50
2018,04,01,08,35,22.50
2018,04,01,08,36,17.70
2018,04,01,08,37,17.70
2018,04,01,08,38,17.70
2018,04,01,08,39,17.70
2018,04,01,08,40,17.70
2018,04,01,08,41,24.20
2018,04,01,08,42,20.90
2018,04,01,08,43,17.70
2018,04,01,08,44,25.70
2018,04,01,08,45,25.70
2018,04,01,08,46,16.10
2018,04,01,08,47,17.70
2018,04,01,08,48,17.70
2018,04,01,08,49,19.30
2018,04,01,08,50,20.90
2018,04,01,08,51,17.70
2018,04,01,08,52,16.10
2018,04,01,08,53,19.30
2018,04,01,08,54,17.70
2018,04,01,08,55,17.70
2018,04,01,08,56,17.70
2018,04,01,08,57,25.70
2018,04,01,08,58,17.70
2018,04,01,08,59,19.30
2018,04,01,09,00,17.70
2018,04,01,09,01,19.30
2018,04,01,09,02,9.60
2018,04,01,09,03,25.70
2018,04,01,09,04,20.90
2018,04,01,09,05,19.30
2018,04,01,09,06,17.70
2018,04,01,09,07,16.10
2018,04,01,09,08,17.70
2018,04,01,09,09,22.50
2018,04,01,09,10,29.00
2018,04,01,09,11,27.40
2018,04,01,09,12,24.20
2018,04,01,09,13,24.20
2018,04,01,09,14,19.30
2018,04,01,09,15,19.30
2018,04,01,09,16,20.90
2018,04,01,09,17,20.90
2018,04,01,09,18,20.90
2018,04,01,09,19,20.90
2018,04,01,09,20,25.70
2018,04,01,09,21,19.30
2018,04,01,09,22,20.90
2018,04,01,09,23,16.10
2018,04,01,09,24,14.50
2018,04,01,09,25,16.10
2018,04,01,09,26,11.30
2018,04,01,09,27,19.30
2018,04,01,09,28,17.70
2018,04,01,09,29,12.90
2018,04,01,09,30,12.90
2018,04,01,09,31,9.60
2018,04,01,09,32,9.60
2018,04,01,09,33,20.90
2018,04,01,09,34,12.90
2018,04,01,09,35,11.30
2018,04,01,09,36,16.10
2018,04,01,09,37,14.50
2018,04,01,09,38,11.30
2018,04,01,09,39,11.30
2018,04,01,09,40,9.60
2018,04,01,09,41,16.10
2018,04,01,09,42,17.70
2018,04,01,09,43,19.30
2018,04,01,09,44,17.70
2018,04,01,09,45,17.70
2018,04,01,09,46,17.70
2018,04,01,09,47,12.90
2018,04,01,09,48,14.50
2018,04,01,09,49,12.90
2018,04,01,09,50,9.60
2018,04,01,09,51,11.30
2018,04,01,09,52,12.90
2018,04,01,09,53,16.10
2018,04,01,09,54,17.70
2018,04,01,09,55,16.10
2018,04,01,09,56,14.50
2018,04,01,09,57,12.90
2018,04,01,09,58,14.50
2018,04,01,09,59,9.60
2018,04,01,10,00,14.50
2018,04,01,10,01,14.50
2018,04,01,10,02,17.70
2018,04,01,10,03,12.90
2018,04,01,10,04,9.60
2018,04,01,10,05,12.90
2018,04,01,10,06,19.30
2018,04,01,10,07,20.90
2018,04,01,10,08,24.20
2018,04,01,10,09,12.90
2018,04,01,10,10,19.30
2018,04,01,10,11,14.50
2018,04,01,10,12,12.90
2018,04,01,10,13,17.70
2018,04,01,10,14,22.50
2018,04,01,10,15,19.30
2018,04,01,10,16,14.50
2018,04,01,10,17,11.30
2018,04,01,10,18,11.30
2018,04,01,10,19,14.50
2018,04,01,10,20,14.50
2018,04,01,10,21,9.60
2018,04,01,10,22,16.10
2018,04,01,10,23,19.30
2018,04,01,10,24,19.30
2018,04,01,10,25,14.50
2018,04,01,10,26,14.50
2018,04,01,10,27,11.30
2018,04,01,10,28,25.70
2018,04,01,10,29,20.90
2018,04,01,10,30,17.70
2018,04,01,10,31,11.30
2018,04,01,10,32,9.60
2018,04,01,10,33,11.30
2018,04,01,10,34,11.30
2018,04,01,10,35,17.70
2018,04,01,10,36,12.90
2018,04,01,10,37,17.70
2018,04,01,10,38,14.50
2018,04,01,10,39,12.90
2018,04,01,10,40,8.10
2018,04,01,10,41,11.30
2018,04,01,10,42,14.50
2018,04,01,10,43,11.30
2018,04,01,10,44,22.50
2018,04,01,10,45,22.50
2018,04,01,10,46,16.10
2018,04,01,10,47,17.70
2018,04,01,10,48,17.70
2018,04,01,10,49,12.90
2018,04,01,10,50,14.50
2018,04,01,10,51,3.20
2018,04,01,10,52,20.90
2018,04,01,10,53,19.30
2018,04,01,10,54,25.70
2018,04,01,10,55,16.10
2018,04,01,10,56,11.30
2018,04,01,10,57,9.60
2018,04,01,10,58,12.90
2018,04,01,10,59,14.50
2018,04,01,11,00,9.60
2018,04,01,11,01,12.90
2018,04,01,11,02,8.10
2018,04,01,11,03,12.90
2018,04,01,11,04,14.50
2018,04,01,11,05,14.50
2018,04,01,11,06,17.70
2018,04,01,11,07,20.90
2018,04,01,11,08,17.70
2018,04,01,11,09,17.70
2018,04,01,11,10,8.10
2018,04,01,11,11,11.30
2018,04,01,11,12,12.90
2018,04,01,11,13,19.30
2018,04,01,11,14,19.30
2018,04,01,11,15,11.30
2018,04,01,11,16,9.60
2018,04,01,11,17,16.10
2018,04,01,11,18,17.70
2018,04,01,11,19,14.50
2018,04,01,11,20,12.90
2018,04,01,11,21,17.70
2018,04,01,11,22,17.70
2018,04,01,11,23,25.70
2018,04,01,11,24,19.30
2018,04,01,11,25,11.30
2018,04,01,11,26,14.50
2018,04,01,11,27,22.50
2018,04,01,11,28,17.70
2018,04,01,11,29,20.90
2018,04,01,11,30,14.50
2018,04,01,11,31,14.50
2018,04,01,11,32,17.70
2018,04,01,11,33,17.70
2018,04,01,11,34,16.10
2018,04,01,11,35,9.60
2018,04,01,11,36,17.70
2018,04,01,11,37,12.90
2018,04,01,11,38,17.70
2018,04,01,11,39,12.90
2018,04,01,11,40,19.30
2018,04,01,11,41,20.90
2018,04,01,11,42,11.30
2018,04,01,11,43,16.10
2018,04,01,11,44,16.10
2018,04,01,11,45,9.60
2018,04,01,11,46,8.10
2018,04,01,11,47,14.50
2018,04,01,11,48,11.30
2018,04,01,11,49,12.90
2018,04,01,11,50,17.70
2018,04,01,11,51,12.90
2018,04,01,11,52,20.90
2018,04,01,11,53,17.70
2018,04,01,11,54,14.50
2018,04,01,11,55,20.90
2018,04,01,11,56,22.50
2018,04,01,11,57,14.50
2018,04,01,11,58,12.90
2018,04,01,11,59,14.50
2018,04,01,12,00,17.70
2018,04,01,12,01,14.50
2018,04,01,12,02,11.30
2018,04,01,12,03,22.50
2018,04,01,12,04,19.30
2018,04,01,12,05,24.20
2018,04,01,12,06,20.90
2018,04,01,12,07,19.30
2018,04,01,12,08,14.50
2018,04,01,12,09,17.70
2018,04,01,12,10,17.70
2018,04,01,12,11,20.90
2018,04,01,12,12,17.70
2018,04,01,12,13,16.10
2018,04,01,12,14,6.40
2018,04,01,12,15,8.10
2018,04,01,12,16,8.10
2018,04,01,12,17,17.70
2018,04,01,12,18,17.70
2018,04,01,12,19,9.60
2018,04,01,12,20,19.30
2018,04,01,12,21,17.70
2018,04,01,12,22,14.50
2018,04,01,12,23,16.10
2018,04,01,12,24,12.90
2018,04,01,12,25,14.50
2018,04,01,12,26,11.30
2018,04,01,12,27,14.50
2018,04,01,12,28,22.50
2018,04,01,12,29,22.50
2018,04,01,12,30,14.50
2018,04,01,12,31,16.10
2018,04,01,12,32,11.30
2018,04,01,12,33,9.60
2018,04,01,12,34,4.80
2018,04,01,12,35,9.60
2018,04,01,12,36,17.70
2018,04,01,12,37,22.50
2018,04,01,12,38,16.10
2018,04,01,12,39,14.50
2018,04,01,12,40,14.50
2018,04,01,12,41,16.10
2018,04,01,12,42,19.30
2018,04,01,12,43,20.90
2018,04,01,12,44,17.70
2018,04,01,12,45,19.30
2018,04,01,12,46,20.90
2018,04,01,12,47,25.70
2018,04,01,12,48,22.50
2018,04,01,12,49,16.10
2018,04,01,12,50,25.70
2018,04,01,12,51,22.50
2018,04,01,12,52,17.70
2018,04,01,12,53,17.70
2018,04,01,12,54,16.10
2018,04,01,12,55,17.70
2018,04,01,12,56,17.70
2018,04,01,12,57,17.70
2018,04,01,12,58,16.10
2018,04,01,12,59,25.70
2018,04,01,13,00,24.20
2018,04,01,13,01,16.10
2018,04,01,13,02,29.00
2018,04,01,13,03,22.50
2018,04,01,13,04,20.90
2018,04,01,13,05,27.40
2018,04,01,13,06,24.20
2018,04,01,13,07,27.40
2018,04,01,13,08,24.20
2018,04,01,13,09,22.50
2018,04,01,13,10,24.20
2018,04,01,13,11,24.20
2018,04,01,13,12,22.50
2018,04,01,13,13,25.70
2018,04,01,13,14,22.50
2018,04,01,13,15,16.10
2018,04,01,13,16,27.40
2018,04,01,13,17,22.50
2018,04,01,13,18,19.30
2018,04,01,13,19,19.30
2018,04,01,13,20,20.90
2018,04,01,13,21,22.50
2018,04,01,13,22,14.50
2018,04,01,13,23,12.90
2018,04,01,13,24,11.30
2018,04,01,13,25,11.30
2018,04,01,13,26,8.10
2018,04,01,13,27,25.70
2018,04,01,13,28,22.50
2018,04,01,13,29,17.70
2018,04,01,13,30,12.90
2018,04,01,13,31,20.90
2018,04,01,13,32,17.70
2018,04,01,13,33,20.90
2018,04,01,13,34,8.10
2018,04,01,13,35,14.50
2018,04,01,13,36,20.90
2018,04,01,13,37,12.90
2018,04,01,13,38,19.30
2018,04,01,13,39,17.70
2018,04,01,13,40,16.10
2018,04,01,13,41,12.90
2018,04,01,13,42,17.70
2018,04,01,13,43,14.50
2018,04,01,13,44,12.90
2018,04,01,13,45,11.30
2018,04,01,13,46,8.10
2018,04,01,13,47,20.90
2018,04,01,13,48,16.10
2018,04,01,13,49,9.60
2018,04,01,13,50,8.10
2018,04,01,13,51,8.10
2018,04,01,13,52,8.10
2018,04,01,13,53,6.40
2018,04,01,13,54,9.60
2018,04,01,13,55,12.90
2018,04,01,13,56,9.60
2018,04,01,13,57,11.30
2018,04,01,13,58,17.70
2018,04,01,13,59,25.70
2018,04,01,14,00,30.60
2018,04,01,14,01,25.70
2018,04,01,14,02,19.30
2018,04,01,14,03,20.90
2018,04,01,14,04,14.50
2018,04,01,14,05,11.30
2018,04,01,14,06,17.70
2018,04,01,14,07,17.70
2018,04,01,14,08,9.60
2018,04,01,14,09,22.50
2018,04,01,14,10,20.90
2018,04,01,14,11,17.70
2018,04,01,14,12,17.70
2018,04,01,14,13,11.30
2018,04,01,14,14,9.60
2018,04,01,14,15,14.50
2018,04,01,14,16,12.90
2018,04,01,14,17,12.90
2018,04,01,14,18,11.30
2018,04,01,14,19,11.30
2018,04,01,14,20,12.90
2018,04,01,14,21,14.50
2018,04,01,14,22,20.90
2018,04,01,14,23,22.50
2018,04,01,14,24,24.20
2018,04,01,14,25,24.20
2018,04,01,14,26,22.50
2018,04,01,14,27,22.50
2018,04,01,14,28,20.90
2018,04,01,14,29,22.50
2018,04,01,14,30,17.70
2018,04,01,14,31,19.30
2018,04,01,14,32,24.20
2018,04,01,14,33,12.90
2018,04,01,14,34,20.90
2018,04,01,14,35,16.10
2018,04,01,14,36,20.90
2018,04,01,14,37,25.70
2018,04,01,14,38,20.90
2018,04,01,14,39,16.10
2018,04,01,14,40,25.70
2018,04,01,14,41,17.70
2018,04,01,14,42,14.50
2018,04,01,14,43,12.90
2018,04,01,14,44,16.10
2018,04,01,14,45,20.90
2018,04,01,14,46,20.90
2018,04,01,14,47,20.90
2018,04,01,14,48,27.40
2018,04,01,14,49,16.10
2018,04,01,14,50,16.10
2018,04,01,14,51,19.30
2018,04,01,14,52,19.30
2018,04,01,14,53,14.50
2018,04,01,14,54,20.90
2018,04,01,14,55,17.70
2018,04,01,14,56,16.10
2018,04,01,14,57,9.60
2018,04,01,14,58,11.30
2018,04,01,14,59,9.60
2018,04,01,15,00,8.10
2018,04,01,15,01,20.90
2018,04,01,15,02,20.90
2018,04,01,15,03,12.90
2018,04,01,15,04,17.70
2018,04,01,15,05,12.90
2018,04,01,15,06,11.30
2018,04,01,15,07,9.60
2018,04,01,15,08,12.90
2018,04,01,15,09,17.70
2018,04,01,15,10,17.70
2018,04,01,15,11,11.30
2018,04,01,15,12,9.60
2018,04,01,15,13,6.40
2018,04,01,15,14,8.10
2018,04,01,15,15,1.60
2018,04,01,15,16,3.20
2018,04,01,15,17,4.80
2018,04,01,15,18,8.10
2018,04,01,15,19,19.30
2018,04,01,15,20,14.50
2018,04,01,15,21,27.40
2018,04,01,15,22,14.50
2018,04,01,15,23,17.70
2018,04,01,15,24,8.10
2018,04,01,15,25,9.60
2018,04,01,15,26,8.10
2018,04,01,15,27,12.90
2018,04,01,15,28,8.10
2018,04,01,15,29,8.10
2018,04,01,15,30,8.10
2018,04,01,15,31,20.90
2018,04,01,15,32,24.20
2018,04,01,15,33,22.50
2018,04,01,15,34,19.30
2018,04,01,15,35,20.90
2018,04,01,15,36,29.00
2018,04,01,15,37,20.90
2018,04,01,15,38,20.90
2018,04,01,15,39,29.00
2018,04,01,15,40,30.60
2018,04,01,15,41,22.50
2018,04,01,15,42,27.40
2018,04,01,15,43,29.00
2018,04,01,15,44,25.70
2018,04,01,15,45,24.20
2018,04,01,15,46,29.00
2018,04,01,15,47,14.50
2018,04,01,15,48,12.90
2018,04,01,15,49,9.60
2018,04,01,15,50,14.50
2018,04,01,15,51,14.50
2018,04,01,15,52,20.90
2018,04,01,15,53,20.90
2018,04,01,15,54,16.10
2018,04,01,15,55,17.70
2018,04,01,15,56,19.30
2018,04,01,15,57,19.30
2018,04,01,15,58,16.10
2018,04,01,15,59,16.10
2018,04,01,16,00,12.90
2018,04,01,16,01,11.30
2018,04,01,16,02,27.40
2018,04,01,16,03,27.40
2018,04,01,16,04,19.30
2018,04,01,16,05,24.20
2018,04,01,16,06,20.90
2018,04,01,16,07,22.50
2018,04,01,16,08,17.70
2018,04,01,16,09,29.00
2018,04,01,16,10,24.20
2018,04,01,16,11,16.10
2018,04,01,16,12,22.50
2018,04,01,16,13,27.40
2018,04,01,16,14,33.80
2018,04,01,16,15,24.20
2018,04,01,16,16,38.60
2018,04,01,16,17,41.80
2018,04,01,16,18,40.20
2018,04,01,16,19,56.30
2018,04,01,16,20,56.30
2018,04,01,16,21,35.40
2018,04,01,16,22,29.00
2018,04,01,16,23,19.30
2018,04,01,16,24,19.30
2018,04,01,16,25,25.70
2018,04,01,16,26,24.20
2018,04,01,16,27,25.70
2018,04,01,16,28,16.10
2018,04,01,16,29,22.50
2018,04,01,16,30,20.90
2018,04,01,16,31,11.30
2018,04,01,16,32,19.30
2018,04,01,16,33,17.70
2018,04,01,16,34,16.10
2018,04,01,16,35,16.10
2018,04,01,16,36,22.50
2018,04,01,16,37,19.30
2018,04,01,16,38,17.70
2018,04,01,16,39,19.30
2018,04,01,16,40,20.90
2018,04,01,16,41,19.30
2018,04,01,16,42,20.90
2018,04,01,16,43,20.90
2018,04,01,16,44,19.30
2018,04,01,16,45,16.10
2018,04,01,16,46,19.30
2018,04,01,16,47,20.90
2018,04,01,16,48,12.90
2018,04,01,16,49,16.10
2018,04,01,16,50,8.10
2018,04,01,16,51,12.90
2018,04,01,16,52,16.10
2018,04,01,16,53,20.90
2018,04,01,16,54,17.70
2018,04,01,16,55,16.10
2018,04,01,16,56,11.30
2018,04,01,16,57,8.10
2018,04,01,16,58,6.40
2018,04,01,16,59,9.60
2018,04,01,17,00,11.30
2018,04,01,17,01,9.60
2018,04,01,17,02,16.10
2018,04,01,17,03,12.90
2018,04,01,17,04,12.90
2018,04,01,17,05,11.30
2018,04,01,17,06,12.90
2018,04,01,17,07,11.30
2018,04,01,17,08,14.50
2018,04,01,17,09,6.40
2018,04,01,17,10,6.40
2018,04,01,17,11,4.80
2018,04,01,17,12,9.60
2018,04,01,17,13,6.40
2018,04,01,17,14,9.60
2018,04,01,17,15,9.60
2018,04,01,17,16,11.30
2018,04,01,17,17,11.30
2018,04,01,17,18,9.60
2018,04,01,17,19,9.60
2018,04,01,17,20,9.60
2018,04,01,17,21,16.10
2018,04,01,17,22,16.10
2018,04,01,17,23,11.30
2018,04,01,17,24,6.40
2018,04,01,17,25,9.60
2018,04,01,17,26,9.60